�������l�o���
Date,Time,MP-1(��Sv/h),MP-2(��Sv/h),MP-3(��Sv/h),MP-4(��Sv/h),MP-5(��Sv/h),MP-6(��Sv/h),MP-7(��Sv/h),MP-8(��Sv/h),����,����(m/s),���J
2017/12/09,00:00,0.882,1.453,0.922,1.728,1.173,0.493,0.874,0.840,�k�k��,9.5,��
2017/12/09,00:10,0.879,1.454,0.921,1.731,1.177,0.493,0.875,0.842,�k�k��,9.3,��
2017/12/09,00:20,0.880,1.455,0.918,1.728,1.177,0.492,0.877,0.842,�k�k��,8.7,��
2017/12/09,00:30,0.880,1.458,0.919,1.726,1.177,0.491,0.876,0.842,�k�k��,8.0,��
2017/12/09,00:40,0.880,1.455,0.920,1.726,1.173,0.492,0.875,0.840,�k�k��,8.0,��
2017/12/09,00:50,0.880,1.453,0.921,1.728,1.176,0.492,0.875,0.841,�k�k��,7.2,��
2017/12/09,01:00,0.880,1.455,0.918,1.731,1.175,0.491,0.874,0.842,�k�k��,6.8,��
2017/12/09,01:10,0.879,1.453,0.919,1.727,1.175,0.492,0.875,0.842,�k,5.7,��
2017/12/09,01:20,0.881,1.454,0.919,1.730,1.173,0.492,0.874,0.842,�k�k��,5.5,��
2017/12/09,01:30,0.879,1.455,0.920,1.727,1.176,0.491,0.875,0.840,�k�k��,5.0,��
2017/12/09,01:40,0.880,1.456,0.922,1.729,1.175,0.491,0.873,0.841,�k�k��,4.7,��
2017/12/09,01:50,0.881,1.456,0.920,1.729,1.177,0.491,0.875,0.841,�k�k��,4.3,��
2017/12/09,02:00,0.879,1.455,0.919,1.729,1.176,0.491,0.876,0.841,�k�k��,4.5,��
2017/12/09,02:10,0.879,1.455,0.920,1.726,1.176,0.491,0.875,0.842,�k��,4.7,��
2017/12/09,02:20,0.880,1.456,0.921,1.727,1.175,0.491,0.874,0.840,�k��,5.5,��
2017/12/09,02:30,0.880,1.454,0.918,1.729,1.175,0.492,0.874,0.841,�k��,4.8,��
2017/12/09,02:40,0.879,1.453,0.918,1.728,1.174,0.491,0.875,0.839,�k�k��,4.0,��
2017/12/09,02:50,0.881,1.453,0.919,1.727,1.173,0.492,0.874,0.840,�k�k��,4.0,��
2017/12/09,03:00,0.880,1.455,0.919,1.726,1.175,0.491,0.874,0.840,�k�k��,4.0,��
2017/12/09,03:10,0.878,1.453,0.917,1.724,1.175,0.492,0.873,0.841,�k�k��,3.6,��
2017/12/09,03:20,0.882,1.453,0.920,1.727,1.175,0.491,0.874,0.842,�k�k��,4.5,��
2017/12/09,03:30,0.877,1.454,0.918,1.729,1.175,0.491,0.873,0.839,�k�k��,3.8,��
2017/12/09,03:40,0.879,1.454,0.920,1.727,1.173,0.492,0.873,0.840,�k�k��,4.0,��
2017/12/09,03:50,0.880,1.454,0.919,1.727,1.173,0.492,0.874,0.839,�k�k��,3.1,��
2017/12/09,04:00,0.877,1.454,0.918,1.726,1.174,0.491,0.873,0.840,�k�k��,3.1,��
2017/12/09,04:10,0.880,1.451,0.918,1.726,1.173,0.491,0.875,0.838,�k�k��,3.3,��
2017/12/09,04:20,0.878,1.458,0.919,1.726,1.172,0.492,0.873,0.840,�k�k��,3.4,��
2017/12/09,04:30,0.880,1.453,0.916,1.726,1.175,0.491,0.873,0.840,�k�k��,3.6,��
2017/12/09,04:40,0.879,1.454,0.917,1.729,1.174,0.491,0.872,0.839,�k,2.3,��
2017/12/09,04:50,0.880,1.452,0.916,1.726,1.174,0.491,0.875,0.839,�k,1.4,��
2017/12/09,05:00,0.879,1.454,0.918,1.725,1.174,0.489,0.872,0.840,�k�k��,1.7,��
2017/12/09,05:10,0.878,1.453,0.918,1.724,1.175,0.490,0.873,0.839,�k,1.9,��
2017/12/09,05:20,0.877,1.452,0.917,1.725,1.175,0.490,0.873,0.840,�k,2.2,��
2017/12/09,05:30,0.878,1.455,0.918,1.724,1.172,0.490,0.871,0.840,�k�k��,1.9,��
2017/12/09,05:40,0.877,1.453,0.918,1.727,1.175,0.489,0.874,0.838,�k,2.0,��
2017/12/09,05:50,0.877,1.451,0.919,1.725,1.174,0.490,0.871,0.839,�k��,1.1,��
2017/12/09,06:00,0.878,1.455,0.917,1.726,1.173,0.490,0.871,0.840,�k�k��,1.5,��
2017/12/09,06:10,0.879,1.454,0.919,1.725,1.172,0.490,0.872,0.839,���k��,1.5,��
2017/12/09,06:20,0.877,1.453,0.918,1.724,1.172,0.491,0.875,0.840,��,1.9,��
2017/12/09,06:30,0.877,1.453,0.916,1.721,1.173,0.491,0.874,0.840,��,1.9,��
2017/12/09,06:40,0.876,1.452,0.917,1.725,1.175,0.491,0.873,0.841,��,1.4,��
2017/12/09,06:50,0.876,1.455,0.918,1.725,1.172,0.492,0.872,0.841,�쐼,2.0,��
2017/12/09,07:00,0.877,1.450,0.916,1.727,1.171,0.491,0.872,0.839,�쐼,2.2,��
2017/12/09,07:10,0.880,1.453,0.917,1.724,1.171,0.489,0.873,0.839,��쐼,2.3,��
2017/12/09,07:20,0.878,1.453,0.916,1.726,1.173,0.490,0.874,0.840,��쐼,3.4,��
2017/12/09,07:30,0.878,1.452,0.917,1.731,1.171,0.489,0.874,0.839,��,3.7,��
2017/12/09,07:40,0.877,1.455,0.917,1.725,1.172,0.491,0.872,0.842,��쐼,4.8,��
2017/12/09,07:50,0.878,1.453,0.919,1.726,1.170,0.491,0.873,0.840,��쐼,3.5,��
2017/12/09,08:00,0.876,1.451,0.916,1.728,1.173,0.490,0.872,0.839,��쐼,4.5,��
2017/12/09,08:10,0.877,1.452,0.917,1.728,1.173,0.491,0.873,0.841,��쐼,5.1,��
2017/12/09,08:20,0.877,1.453,0.917,1.726,1.172,0.489,0.874,0.840,�쐼,5.7,��
2017/12/09,08:30,0.878,1.454,0.917,1.726,1.173,0.491,0.874,0.841,���쐼,7.2,��
2017/12/09,08:40,0.879,1.451,0.918,1.726,1.173,0.491,0.873,0.840,���쐼,6.8,��
2017/12/09,08:50,0.879,1.452,0.919,1.727,1.177,0.491,0.872,0.841,��,5.4,��
2017/12/09,09:00,0.882,1.453,0.918,1.730,1.175,0.490,0.872,0.842,��,3.6,��
2017/12/09,09:10,0.882,1.454,0.918,1.727,1.176,0.491,0.873,0.842,��,3.9,��
2017/12/09,09:20,0.882,1.456,0.918,1.729,1.175,0.491,0.875,0.840,��,6.4,��
2017/12/09,09:30,0.880,1.454,0.921,1.728,1.174,0.492,0.875,0.841,���쐼,6.1,��
2017/12/09,09:40,0.881,1.452,0.920,1.730,1.175,0.491,0.875,0.840,���쐼,5.8,��
2017/12/09,09:50,0.882,1.454,0.920,1.729,1.173,0.490,0.875,0.841,��,5.1,��
2017/12/09,10:00,0.883,1.454,0.921,1.728,1.173,0.491,0.874,0.840,��,4.5,��
2017/12/09,10:10,0.881,1.453,0.921,1.729,1.176,0.492,0.875,0.842,��,6.0,��
2017/12/09,10:20,0.884,1.454,0.921,1.731,1.175,0.493,0.872,0.842,��,5.0,��
2017/12/09,10:30,0.882,1.453,0.922,1.732,1.176,0.492,0.875,0.843,��,4.0,��
2017/12/09,10:40,0.884,1.454,0.922,1.730,1.177,0.491,0.873,0.841,��,1.2,��
2017/12/09,10:50,0.881,1.454,0.922,1.732,1.176,0.492,0.874,0.842,�k�k��,1.7,��
2017/12/09,11:00,0.882,1.451,0.922,1.732,1.179,0.493,0.874,0.843,�k,1.7,��
2017/12/09,11:10,0.882,1.448,0.921,1.731,1.177,0.493,0.874,0.842,�k,2.6,��
2017/12/09,11:20,0.883,1.453,0.923,1.733,1.177,0.494,0.874,0.843,�k�k��,3.2,��
2017/12/09,11:30,0.884,1.455,0.923,1.733,1.177,0.492,0.874,0.841,�k�k��,2.3,��
2017/12/09,11:40,0.884,1.455,0.924,1.729,1.179,0.492,0.875,0.842,���k��,2.8,��
2017/12/09,11:50,0.884,1.458,0.923,1.730,1.179,0.492,0.876,0.841,�k��,2.6,��
2017/12/09,12:00,0.883,1.459,0.924,1.731,1.180,0.492,0.875,0.842,���k��,2.6,��
2017/12/09,12:10,0.884,1.456,0.922,1.731,1.178,0.492,0.875,0.843,���k��,2.8,��
2017/12/09,12:20,0.882,1.459,0.924,1.733,1.179,0.493,0.876,0.842,�k�k��,2.5,��
2017/12/09,12:30,0.884,1.462,0.923,1.730,1.181,0.490,0.873,0.841,�k,1.5,��
2017/12/09,12:40,0.884,1.458,0.923,1.732,1.178,0.491,0.876,0.842,�k�k��,2.3,��
2017/12/09,12:50,0.885,1.455,0.924,1.735,1.182,0.492,0.875,0.841,���k��,3.8,��
2017/12/09,13:00,0.885,1.458,0.923,1.732,1.178,0.491,0.874,0.843,��,4.8,�L
2017/12/09,13:10,0.882,1.456,0.922,1.734,1.179,0.492,0.876,0.843,���k��,4.1,�L
2017/12/09,13:20,0.887,1.458,0.922,1.731,1.179,0.493,0.875,0.840,�k��,3.5,��
2017/12/09,13:30,0.884,1.456,0.923,1.731,1.178,0.493,0.875,0.842,�k��,3.2,��
2017/12/09,13:40,0.884,1.460,0.922,1.731,1.177,0.491,0.876,0.841,�k�k��,2.9,��
2017/12/09,13:50,0.885,1.459,0.922,1.730,1.179,0.492,0.877,0.842,�k��,1.5,��
2017/12/09,14:00,0.884,1.458,0.922,1.733,1.179,0.492,0.876,0.843,�k,2.0,��
2017/12/09,14:10,0.882,1.459,0.923,1.734,1.180,0.492,0.879,0.843,�k�k��,2.0,��
2017/12/09,14:20,0.885,1.459,0.923,1.731,1.178,0.493,0.877,0.842,���k��,2.6,��
2017/12/09,14:30,0.886,1.459,0.922,1.731,1.179,0.491,0.878,0.842,���쐼,2.6,��
2017/12/09,14:40,0.882,1.460,0.925,1.732,1.179,0.493,0.877,0.842,��,2.5,��
2017/12/09,14:50,0.883,1.461,0.923,1.732,1.179,0.492,0.875,0.840,���k��,7.4,��
2017/12/09,15:00,0.885,1.463,0.922,1.735,1.177,0.492,0.877,0.841,�k��,6.0,��
2017/12/09,15:10,0.886,1.461,0.923,1.732,1.181,0.494,0.877,0.842,��,5.0,��
2017/12/09,15:20,0.884,1.461,0.924,1.734,1.179,0.493,0.877,0.842,��,5.3,��
2017/12/09,15:30,0.886,1.459,0.922,1.734,1.179,0.493,0.876,0.842,��,5.6,��
2017/12/09,15:40,0.885,1.462,0.922,1.734,1.181,0.492,0.876,0.840,��,6.1,��
2017/12/09,15:50,0.883,1.464,0.921,1.735,1.181,0.493,0.875,0.844,��,3.9,��
2017/12/09,16:00,0.883,1.463,0.923,1.733,1.179,0.493,0.875,0.843,��,5.5,��
2017/12/09,16:10,0.886,1.459,0.923,1.732,1.180,0.491,0.876,0.841,���쐼,5.7,��
2017/12/09,16:20,0.884,1.461,0.923,1.735,1.179,0.494,0.875,0.841,��,4.8,��
2017/12/09,16:30,0.885,1.464,0.922,1.734,1.178,0.493,0.878,0.840,���쐼,4.6,��
2017/12/09,16:40,0.882,1.460,0.921,1.732,1.178,0.491,0.876,0.842,���쐼,5.1,��
2017/12/09,16:50,0.882,1.460,0.923,1.732,1.179,0.493,0.875,0.841,��,4.5,��
2017/12/09,17:00,0.882,1.459,0.924,1.733,1.178,0.493,0.875,0.840,��,4.2,��
2017/12/09,17:10,0.885,1.462,0.921,1.731,1.177,0.492,0.875,0.842,�쐼,3.8,��
2017/12/09,17:20,0.881,1.461,0.922,1.734,1.178,0.491,0.875,0.842,���쐼,4.9,��
2017/12/09,17:30,0.882,1.462,0.922,1.731,1.178,0.492,0.874,0.841,���쐼,4.3,��
2017/12/09,17:40,0.881,1.461,0.921,1.733,1.179,0.492,0.873,0.841,���쐼,4.5,��
2017/12/09,17:50,0.882,1.461,0.921,1.731,1.179,0.493,0.875,0.842,�쐼,5.3,��
2017/12/09,18:00,0.882,1.462,0.920,1.734,1.178,0.491,0.874,0.841,�쐼,5.8,��
2017/12/09,18:10,0.883,1.463,0.922,1.734,1.180,0.492,0.875,0.841,�쐼,5.2,��
2017/12/09,18:20,0.881,1.463,0.921,1.733,1.179,0.491,0.875,0.840,�쐼,4.4,��
2017/12/09,18:30,0.884,1.461,0.921,1.733,1.175,0.493,0.873,0.840,�쐼,4.8,��
2017/12/09,18:40,0.882,1.462,0.922,1.734,1.178,0.489,0.875,0.840,���쐼,4.5,��
2017/12/09,18:50,0.881,1.460,0.922,1.733,1.180,0.491,0.877,0.842,���쐼,6.1,��
2017/12/09,19:00,0.881,1.462,0.923,1.735,1.178,0.491,0.875,0.842,���쐼,7.1,��
2017/12/09,19:10,0.882,1.462,0.919,1.731,1.178,0.492,0.873,0.841,��,8.1,��
2017/12/09,19:20,0.882,1.463,0.923,1.735,1.179,0.493,0.874,0.841,��,8.5,��
2017/12/09,19:30,0.882,1.460,0.923,1.732,1.179,0.492,0.876,0.841,��,7.8,��
2017/12/09,19:40,0.882,1.461,0.920,1.734,1.181,0.492,0.875,0.839,��,8.2,��
2017/12/09,19:50,0.883,1.462,0.922,1.736,1.178,0.492,0.874,0.841,��,7.0,��
2017/12/09,20:00,0.881,1.464,0.924,1.733,1.179,0.491,0.875,0.841,��,7.2,��
2017/12/09,20:10,0.884,1.463,0.921,1.734,1.178,0.493,0.876,0.843,��,6.6,��
2017/12/09,20:20,0.883,1.457,0.921,1.734,1.177,0.492,0.876,0.841,��,6.6,��
2017/12/09,20:30,0.884,1.461,0.918,1.735,1.178,0.492,0.875,0.842,���k��,6.4,��
2017/12/09,20:40,0.883,1.464,0.921,1.732,1.179,0.490,0.874,0.841,���k��,6.6,��
2017/12/09,20:50,0.882,1.461,0.921,1.734,1.174,0.491,0.874,0.841,���k��,6.1,��
2017/12/09,21:00,0.880,1.462,0.922,1.732,1.178,0.491,0.875,0.842,���k��,6.5,��
2017/12/09,21:10,0.883,1.462,0.923,1.736,1.179,0.492,0.874,0.842,���k��,6.9,��
2017/12/09,21:20,0.881,1.461,0.922,1.733,1.178,0.492,0.874,0.840,��,6.6,��
2017/12/09,21:30,0.882,1.462,0.920,1.731,1.179,0.493,0.875,0.839,��,6.6,��
2017/12/09,21:40,0.880,1.461,0.921,1.736,1.178,0.491,0.875,0.840,��,6.6,��
2017/12/09,21:50,0.881,1.462,0.922,1.734,1.176,0.492,0.874,0.840,��,6.8,��
2017/12/09,22:00,0.882,1.463,0.921,1.735,1.176,0.492,0.875,0.840,���쐼,6.3,��
2017/12/09,22:10,0.881,1.462,0.919,1.731,1.176,0.492,0.874,0.840,���쐼,6.8,��
2017/12/09,22:20,0.882,1.460,0.923,1.732,1.176,0.491,0.874,0.841,���쐼,6.0,��
2017/12/09,22:30,0.881,1.463,0.922,1.734,1.178,0.491,0.874,0.841,���쐼,4.5,��
2017/12/09,22:40,0.881,1.463,0.920,1.733,1.177,0.491,0.875,0.839,���쐼,4.2,��
2017/12/09,22:50,0.879,1.462,0.923,1.734,1.175,0.491,0.873,0.840,��,3.7,��
2017/12/09,23:00,0.881,1.460,0.921,1.731,1.176,0.491,0.875,0.842,���쐼,5.5,��
2017/12/09,23:10,0.882,1.461,0.921,1.735,1.175,0.490,0.873,0.839,���쐼,5.2,��
2017/12/09,23:20,0.882,1.462,0.920,1.733,1.177,0.491,0.874,0.840,���쐼,5.7,��
2017/12/09,23:30,0.881,1.461,0.921,1.735,1.177,0.492,0.873,0.842,��,6.9,��
2017/12/09,23:40,0.883,1.460,0.920,1.733,1.177,0.490,0.873,0.841,���쐼,5.7,��
2017/12/09,23:50,0.882,1.461,0.920,1.735,1.178,0.493,0.876,0.841,���쐼,5.9,��
